TimeCDT,TemperatureF,Dew PointF,Humidity,Sea Level PressureIn,VisibilityMPH,Wind Direction,Wind SpeedMPH,Gust SpeedMPH,PrecipitationIn,Events,Conditions,WindDirDegrees,DateUTC
12:56 AM,68.0,64.0,87,29.99,10.0,West,3.5,-,N/A,,Clear,270,2013-06-28 05:56:00
1:56 AM,68.0,64.0,87,29.98,10.0,WNW,5.8,-,N/A,,Mostly Cloudy,290,2013-06-28 06:56:00
2:56 AM,70.0,64.9,84,29.97,10.0,West,8.1,-,N/A,,Mostly Cloudy,270,2013-06-28 07:56:00
3:56 AM,70.0,63.0,78,29.98,10.0,NW,4.6,-,N/A,,Clear,320,2013-06-28 08:56:00
4:56 AM,68.0,61.0,78,29.99,10.0,WNW,6.9,-,N/A,,Mostly Cloudy,300,2013-06-28 09:56:00
5:56 AM,66.0,61.0,84,29.99,10.0,WNW,6.9,-,N/A,,Clear,290,2013-06-28 10:56:00
6:56 AM,66.9,61.0,81,30.01,10.0,WNW,8.1,-,N/A,,Clear,290,2013-06-28 11:56:00
7:56 AM,71.1,61.0,70,30.01,10.0,NW,8.1,-,N/A,,Clear,320,2013-06-28 12:56:00
8:56 AM,73.9,57.9,57,30.03,10.0,NNW,12.7,-,N/A,,Clear,330,2013-06-28 13:56:00
9:56 AM,75.9,59.0,56,30.03,10.0,NW,12.7,-,N/A,,Clear,320,2013-06-28 14:56:00
10:56 AM,79.0,59.0,50,30.01,10.0,NNW,15.0,19.6,N/A,,Clear,330,2013-06-28 15:56:00
11:56 AM,80.1,57.0,45,30.02,10.0,NNW,15.0,23.0,N/A,,Clear,340,2013-06-28 16:56:00
12:56 PM,82.0,55.9,41,30.01,10.0,NW,23.0,28.8,N/A,,Clear,320,2013-06-28 17:56:00
1:56 PM,82.9,54.0,37,29.99,10.0,NNW,18.4,27.6,N/A,,Clear,330,2013-06-28 18:56:00
2:56 PM,82.9,55.0,38,29.97,10.0,NW,21.9,29.9,N/A,,Clear,320,2013-06-28 19:56:00
3:56 PM,84.0,55.9,38,29.96,10.0,NNW,24.2,29.9,N/A,,Partly Cloudy,330,2013-06-28 20:56:00
4:56 PM,84.0,55.9,38,29.95,10.0,NW,19.6,28.8,N/A,,Scattered Clouds,320,2013-06-28 21:56:00
5:56 PM,82.9,55.9,39,29.95,10.0,NNW,19.6,31.1,N/A,,Mostly Cloudy,330,2013-06-28 22:56:00
6:56 PM,82.0,55.0,39,29.94,10.0,North,21.9,28.8,N/A,,Clear,350,2013-06-28 23:56:00
7:56 PM,80.1,55.0,42,29.94,10.0,NNW,18.4,-,N/A,,Clear,340,2013-06-29 00:56:00
8:56 PM,75.9,55.9,50,29.94,10.0,North,8.1,-,N/A,,Clear,350,2013-06-29 01:56:00
9:56 PM,71.1,55.0,57,29.94,10.0,NNW,9.2,-,N/A,,Clear,330,2013-06-29 02:56:00
10:56 PM,69.1,55.0,61,29.95,10.0,NW,5.8,-,N/A,,Clear,310,2013-06-29 03:56:00
11:56 PM,66.0,55.9,70,29.95,10.0,WNW,8.1,-,N/A,,Clear,290,2013-06-29 04:56:00